| time (UTC) | temp C | wind direction | speed KPH | gust KPH | rain 1hr cm | rain 24hr cm | rain mn cm | humidity % | barometer mb |
| 20260506224514 | 16 | 344 | 1.6 | 8.0 | 0.00 | 0.00 | 0.00 | 68 | 1021.1 |
| 20260506223014 | 16 | 222 | 0.0 | 3.2 | 0.00 | 0.00 | 0.00 | 71 | 1021.2 |
| 20260506221514 | 16 | 44 | 1.6 | 4.8 | 0.00 | 0.00 | 0.00 | 67 | 1021.4 |
| 20260506220012 | 16 | 114 | 0.0 | 6.4 | 0.00 | 0.00 | 0.00 | 67 | 1021.4 |
| 20260506214517 | 16 | 53 | 1.6 | 9.7 | 0.00 | 0.00 | 0.00 | 66 | 1021.4 |
| 20260506213008 | 16 | 174 | 1.6 | 6.4 | 0.00 | 0.00 | 0.00 | 67 | 1021.4 |
| 20260506211504 | 15 | 345 | 0.0 | 9.7 | 0.00 | 0.00 | 0.00 | 70 | 1021.4 |
| 20260506210100 | 15 | 338 | 3.2 | 9.7 | 0.00 | 0.00 | 0.00 | 70 | 1021.3 |
| 20260506204557 | 15 | 20 | 1.6 | 8.0 | 0.00 | 0.00 | 0.00 | 72 | 1021.2 |
| 20260506203058 | 15 | 42 | 1.6 | 6.4 | 0.00 | 0.00 | 0.00 | 72 | 1021.2 |
| 20260506201554 | 15 | 57 | 1.6 | 9.7 | 0.00 | 0.00 | 0.00 | 72 | 1021.2 |
| 20260506200052 | 14 | 5 | 1.6 | 8.0 | 0.00 | 0.00 | 0.00 | 73 | 1021.2 |
| 20260506194550 | 14 | 169 | 0.0 | 4.8 | 0.00 | 0.00 | 0.00 | 75 | 1021.3 |
| 20260506193051 | 14 | 16 | 0.0 | 8.0 | 0.00 | 0.00 | 0.00 | 76 | 1021.2 |
| 20260506191547 | 14 | 336 | 0.0 | 6.4 | 0.00 | 0.00 | 0.00 | 78 | 1021.0 |
| 20260506190044 | 13 | 28 | 1.6 | 8.0 | 0.00 | 0.00 | 0.00 | 80 | 1021.0 |
| 20260506184550 | 13 | 51 | 0.0 | 4.8 | 0.00 | 0.00 | 0.00 | 81 | 1021.2 |
| 20260506183052 | 13 | 5 | 0.0 | 4.8 | 0.00 | 0.00 | 0.00 | 81 | 1021.1 |
| 20260506181608 | 13 | 355 | 0.0 | 4.8 | 0.00 | 0.00 | 0.00 | 82 | 1021.1 |
| 20260506180038 | 12 | 18 | 0.0 | 3.2 | 0.00 | 0.00 | 0.00 | 82 | 1021.1 |
| 20260506174540 | 12 | 11 | 0.0 | 4.8 | 0.00 | 0.00 | 0.00 | 81 | 1021.1 |
| 20260506173053 | 12 | 355 | 0.0 | 3.2 | 0.00 | 0.00 | 0.00 | 83 | 1020.9 |
| 20260506171534 | 12 | 348 | 1.6 | 4.8 | 0.00 | 0.00 | 0.00 | 82 | 1020.8 |
| 20260506170035 | 12 | 21 | 0.0 | 4.8 | 0.00 | 0.00 | 0.00 | 84 | 1020.7 |
| 20260506164537 | 12 | 30 | 0.0 | 4.8 | 0.00 | 0.00 | 0.00 | 86 | 1020.5 |
| 20260506163035 | 12 | 10 | 0.0 | 3.2 | 0.00 | 0.00 | 0.00 | 86 | 1020.7 |
| 20260506161530 | 12 | 5 | 0.0 | 3.2 | 0.00 | 0.00 | 0.00 | 86 | 1020.7 |
| 20260506160030 | 11 | 15 | 0.0 | 3.2 | 0.00 | 0.00 | 0.00 | 87 | 1020.7 |
| 20260506154527 | 11 | 355 | 0.0 | 3.2 | 0.00 | 0.00 | 0.00 | 87 | 1020.5 |
| 20260506153026 | 11 | 26 | 0.0 | 3.2 | 0.00 | 0.00 | 0.00 | 87 | 1020.5 |
| 20260506151526 | 11 | 351 | 0.0 | 4.8 | 0.00 | 0.00 | 0.00 | 87 | 1020.4 |
| 20260506150027 | 11 | 98 | 0.0 | 3.2 | 0.00 | 0.00 | 0.00 | 88 | 1019.7 |
| 20260506144526 | 11 | 82 | 0.0 | 3.2 | 0.00 | 0.00 | 0.00 | 88 | 1020.0 |
| 20260506143028 | 11 | 57 | 0.0 | 4.8 | 0.00 | 0.00 | 0.00 | 88 | 1020.4 |
| 20260506141523 | 11 | 34 | 0.0 | 3.2 | 0.00 | 0.00 | 0.00 | 89 | 1020.5 |
| 20260506140024 | 11 | 36 | 0.0 | 3.2 | 0.00 | 0.00 | 0.00 | 89 | 1020.2 |
| 20260506134520 | 11 | 45 | 0.0 | 1.6 | 0.00 | 0.00 | 0.00 | 89 | 1020.4 |
| 20260506133018 | 11 | 62 | 0.0 | 1.6 | 0.00 | 0.00 | 0.00 | 90 | 1019.8 |
| 20260506131524 | 11 | 53 | 0.0 | 1.6 | 0.00 | 0.00 | 0.00 | 90 | 1019.9 |
| 20260506130114 | 11 | 53 | 0.0 | 1.6 | 0.00 | 0.00 | 0.00 | 91 | 1019.6 |
| 20260506124512 | 11 | 324 | 0.0 | 1.6 | 0.00 | 0.00 | 0.00 | 91 | 1019.6 |
| 20260506123011 | 11 | 307 | 0.0 | 0.0 | 0.00 | 0.00 | 0.00 | 92 | 1019.3 |
| 20260506121510 | 11 | 290 | 0.0 | 1.6 | 0.00 | 0.00 | 0.00 | 93 | 1019.2 |
| 20260506120016 | 11 | 290 | 0.0 | 0.0 | 0.00 | 0.00 | 0.00 | 93 | 1019.2 |
| 20260506114517 | 11 | 290 | 0.0 | 1.6 | 0.00 | 0.03 | 0.00 | 93 | 1019.2 |
| 20260506113018 | 11 | 290 | 0.0 | 0.0 | 0.00 | 0.03 | 0.00 | 93 | 1019.1 |
| 20260506111505 | 11 | 290 | 0.0 | 0.0 | 0.00 | 0.03 | 0.00 | 93 | 1019.1 |
| 20260506110003 | 11 | 290 | 0.0 | 0.0 | 0.00 | 0.03 | 0.00 | 92 | 1019.0 |
| 20260506104501 | 11 | 290 | 0.0 | 0.0 | 0.00 | 0.03 | 0.00 | 92 | 1018.8 |
| 20260506103100 | 11 | 290 | 0.0 | 0.0 | 0.00 | 0.03 | 0.00 | 91 | 1018.7 |
| 20260506101558 | 12 | 290 | 0.0 | 1.6 | 0.00 | 0.03 | 0.00 | 90 | 1018.6 |
| 20260506100056 | 12 | 290 | 0.0 | 0.0 | 0.00 | 0.03 | 0.00 | 88 | 1018.6 |
| 20260506094554 | 12 | 290 | 0.0 | 1.6 | 0.00 | 0.03 | 0.00 | 87 | 1018.5 |
| 20260506093052 | 12 | 290 | 0.0 | 0.0 | 0.00 | 0.03 | 0.00 | 86 | 1018.3 |
| 20260506091555 | 12 | 290 | 0.0 | 0.0 | 0.00 | 0.03 | 0.00 | 86 | 1018.2 |
| 20260506090057 | 12 | 290 | 0.0 | 0.0 | 0.00 | 0.03 | 0.00 | 85 | 1018.3 |
| 20260506084551 | 12 | 290 | 0.0 | 0.0 | 0.00 | 0.03 | 0.00 | 85 | 1018.2 |
| 20260506083047 | 12 | 290 | 0.0 | 0.0 | 0.00 | 0.03 | 0.00 | 85 | 1018.0 |
| 20260506081545 | 12 | 290 | 0.0 | 0.0 | 0.00 | 0.03 | 0.00 | 84 | 1017.9 |
| 20260506073040 | 13 | 290 | 0.0 | 1.6 | 0.00 | 0.03 | 0.00 | 84 | 1017.6 |
| 20260506071538 | 13 | 257 | 0.0 | 1.6 | 0.00 | 0.03 | 0.00 | 84 | 1017.4 |
| 20260506061531 | 13 | 228 | 0.0 | 0.0 | 0.00 | 0.03 | 0.03 | 82 | 1017.1 |
| 20260506044526 | 14 | 180 | 0.0 | 1.6 | 0.00 | 0.03 | 0.03 | 84 | 1016.7 |
| 20260506043025 | 14 | 171 | 0.0 | 0.0 | 0.00 | 0.03 | 0.03 | 84 | 1016.6 |
| 20260506041524 | 15 | 171 | 0.0 | 1.6 | 0.00 | 0.03 | 0.03 | 84 | 1016.3 |
| 20260506040025 | 15 | 331 | 0.0 | 3.2 | 0.00 | 0.03 | 0.03 | 83 | 1016.1 |
| 20260506034529 | 15 | 331 | 0.0 | 0.0 | 0.00 | 0.03 | 0.03 | 83 | 1015.9 |
| 20260506033023 | 15 | 331 | 0.0 | 0.0 | 0.00 | 0.03 | 0.03 | 82 | 1015.7 |
| 20260506031523 | 15 | 331 | 0.0 | 1.6 | 0.00 | 0.03 | 0.03 | 81 | 1015.5 |
| 20260506030034 | 15 | 331 | 0.0 | 0.0 | 0.00 | 0.03 | 0.03 | 79 | 1015.3 |
| 20260506024545 | 16 | 331 | 0.0 | 0.0 | 0.00 | 0.03 | 0.03 | 77 | 1015.2 |
| 20260506023021 | 16 | 331 | 0.0 | 1.6 | 0.00 | 0.03 | 0.03 | 76 | 1015.1 |
| 20260506021521 | 16 | 325 | 0.0 | 1.6 | 0.00 | 0.03 | 0.03 | 75 | 1015.1 |
| 20260506020020 | 16 | 334 | 0.0 | 3.2 | 0.00 | 0.03 | 0.03 | 73 | 1015.1 |
| 20260506014520 | 16 | 254 | 0.0 | 3.2 | 0.00 | 0.03 | 0.03 | 72 | 1015.1 |
| 20260506013033 | 16 | 169 | 0.0 | 1.6 | 0.00 | 0.03 | 0.03 | 72 | 1015.1 |
| 20260506011518 | 17 | 282 | 0.0 | 4.8 | 0.00 | 0.03 | 0.03 | 71 | 1015.1 |
| 20260506010023 | 17 | 182 | 0.0 | 3.2 | 0.00 | 0.03 | 0.03 | 71 | 1015.1 |
| 20260506004517 | 17 | 341 | 0.0 | 4.8 | 0.00 | 0.03 | 0.03 | 70 | 1015.2 |
| 20260506003018 | 17 | 65 | 0.0 | 6.4 | 0.00 | 0.03 | 0.03 | 72 | 1015.3 |
| 20260506001520 | 17 | 196 | 1.6 | 4.8 | 0.00 | 0.03 | 0.03 | 70 | 1015.4 |
| 20260506000015 | 17 | 343 | 0.0 | 4.8 | 0.00 | 0.03 | 0.03 | 70 | 1015.5 |
| 20260505234515 | 17 | 182 | 0.0 | 4.8 | 0.00 | 0.03 | 0.03 | 70 | 1015.6 |
| 20260505233019 | 17 | 337 | 1.6 | 4.8 | 0.00 | 0.03 | 0.03 | 71 | 1015.5 |
| 20260505231514 | 17 | 15 | 1.6 | 4.8 | 0.00 | 0.03 | 0.03 | 70 | 1015.7 |
| 20260505230032 | 17 | 348 | 1.6 | 4.8 | 0.00 | 0.03 | 0.03 | 69 | 1015.9 |